Date String (YYYY-MM-DD hh:mm:ss) UTC,Instrument flags,absolute air pressure of the measurement (hPa),sample flow rate (lpm),inlet stack bypass flow (lpm),air temperature of the measurement (°C),ambient temperature measured by the external sensor (°C),aerosol sample conditioner tube jacket temperature (°C),OPC LED temperature (°C),internal box temperature (°C),relative humidity of the measurement (%),span deviation,mass concentration of particles derived from Lorenz-Mie calculation of OPC scattering (μg/m³),mass concentration of particles derived from Lorenz-Mie calculation of OPC scattering (μg/m³),mass concentration of particles derived from Lorenz-Mie calculation of OPC scattering (μg/m³)
DateTimeUTC,F1_M11,P_M11,Q1_M11,Q2_M11,T1_M11,T2_M11,T3_M11,T4_M11,T5_M11,U1_M11,ZSPAN_M11,X2_M11,X0_M11,X1_M11
2023-10-05 09:00:00,SystemResetWarning,0835.6,5.00,000.00,029.5,027.9,000.0,037.9,031.0,13.0,0000.0,0001.87,0006.28,0001.56
2023-10-05 09:01:00,SystemResetWarning,0835.6,5.00,000.00,029.5,027.9,000.0,038.0,031.0,13.1,0000.0,0001.89,0006.30,0001.57
2023-10-05 09:02:00,SystemResetWarning,0835.6,5.00,000.00,029.5,027.9,000.0,038.0,031.0,13.1,0000.0,0001.90,0006.32,0001.57
2023-10-05 09:03:00,SystemResetWarning,0835.6,5.00,000.00,029.5,027.9,000.0,038.0,031.1,13.1,0000.0,0001.91,0006.43,0001.58
2023-10-05 09:04:00,SystemResetWarning,0835.6,5.00,000.00,029.5,027.9,000.0,038.0,031.1,13.2,0000.0,0001.92,0006.81,0001.60
2023-10-05 09:05:00,SystemResetWarning,0835.5,5.00,000.00,029.5,027.9,000.0,037.9,031.1,13.2,0000.0,0001.91,0006.61,0001.63
2023-10-05 09:06:00,SystemResetWarning,0835.5,5.00,000.00,029.5,027.9,000.0,037.9,031.1,13.1,0000.0,0001.92,0006.30,0001.63
2023-10-05 09:07:00,SystemResetWarning,0835.5,5.00,000.00,029.5,027.9,000.0,037.9,031.1,13.2,0000.0,0001.92,0005.94,0001.63
2023-10-05 09:08:00,SystemResetWarning,0835.5,5.00,000.00,029.5,027.9,000.0,038.0,031.1,13.1,0000.0,0001.95,0007.06,0001.64
2023-10-05 09:09:00,SystemResetWarning,0835.6,5.00,000.00,029.5,027.9,000.0,037.9,031.1,13.1,0000.0,0001.94,0005.81,0001.63
2023-10-05 09:10:00,SystemResetWarning,0835.6,5.00,000.00,029.5,027.9,000.0,037.9,031.0,13.1,0000.0,0001.93,0005.27,0001.64
2023-10-05 09:11:00,SystemResetWarning,0835.6,5.00,000.00,029.5,027.9,000.0,037.9,031.1,13.1,0000.0,0001.96,0005.62,0001.63
2023-10-05 09:12:00,SystemResetWarning,0835.6,5.00,000.00,029.5,027.9,000.0,037.9,031.0,13.1,0000.0,0001.97,0005.80,0001.62
2023-10-05 09:13:00,SystemResetWarning,0835.5,5.00,000.00,029.5,027.9,000.0,037.9,031.0,13.1,0000.0,0001.94,0005.73,0001.60
2023-10-05 09:14:00,SystemResetWarning,0835.5,5.00,000.00,029.5,028.0,000.0,037.9,031.1,13.0,0000.0,0001.90,0005.43,0001.59
2023-10-05 09:15:00,SystemResetWarning,0835.9,5.00,000.00,029.5,028.0,000.0,037.9,031.1,13.0,0000.0,0001.89,0005.50,0001.57
2023-10-05 09:16:00,SystemResetWarning,0835.5,5.01,000.00,029.5,028.0,000.0,037.9,031.1,12.9,0000.0,0001.88,0006.21,0001.56
2023-10-05 09:17:00,SystemResetWarning,0835.5,5.00,000.00,029.5,028.0,000.0,037.9,031.1,12.9,0000.0,0001.86,0006.90,0001.56
2023-10-05 09:18:00,SystemResetWarning,0835.6,5.00,000.00,029.5,028.0,000.0,037.9,031.1,12.9,0000.0,0001.89,0008.20,0001.55
2023-10-05 09:19:00,SystemResetWarning,0835.6,5.00,000.00,029.5,027.9,000.0,037.9,031.0,12.9,0000.0,0001.90,0007.79,0001.54
2023-10-05 09:20:00,SystemResetWarning,0835.6,5.00,000.00,029.5,027.9,000.0,037.9,031.0,12.9,0000.0,0001.93,0007.85,0001.53
2023-10-05 09:21:00,SystemResetWarning,0835.6,5.00,000.00,029.5,027.9,000.0,037.9,031.0,12.9,0000.0,0001.90,0007.75,0001.51
2023-10-05 09:22:00,SystemResetWarning,0835.6,5.00,000.00,029.5,027.9,000.0,037.9,031.0,12.9,0000.0,0001.86,0007.52,0001.51
2023-10-05 09:23:00,SystemResetWarning,0835.6,5.01,000.00,029.5,027.9,000.0,037.9,031.0,12.9,0000.0,0001.82,0007.37,0001.50
2023-10-05 09:24:00,SystemResetWarning,0835.6,5.00,000.00,029.4,027.9,000.0,037.9,031.0,12.9,0000.0,0001.80,0007.40,0001.48
2023-10-05 09:25:00,SystemResetWarning,0835.6,5.00,000.00,029.4,027.9,000.0,037.9,031.0,12.9,0000.0,0001.80,0007.43,0001.48
2023-10-05 09:26:00,SystemResetWarning,0835.6,5.00,000.00,029.4,027.9,000.0,037.9,031.0,12.9,0000.0,0001.83,0007.29,0001.48
2023-10-05 09:27:00,SystemResetWarning,0835.6,5.00,000.00,029.4,027.9,000.0,037.9,031.0,13.0,0000.0,0001.85,0006.52,0001.50
2023-10-05 09:28:00,SystemResetWarning,0835.6,5.00,000.00,029.4,027.9,000.0,037.9,031.0,13.0,0000.0,0001.89,0006.18,0001.51
2023-10-05 09:29:00,SystemResetWarning,0835.6,5.00,000.00,029.4,027.9,000.0,037.9,031.0,13.0,0000.0,0001.92,0004.23,0001.52
2023-10-05 09:30:00,SystemResetWarning,0835.6,5.00,000.00,029.4,027.8,000.0,037.9,031.0,12.9,0000.0,0001.98,0003.69,0001.54
2023-10-05 09:31:00,SystemResetWarning,0835.6,5.00,000.00,029.4,027.8,000.0,037.9,031.0,12.9,0000.0,0001.98,0003.83,0001.56
2023-10-05 09:32:00,SystemResetWarning,0835.6,5.00,000.00,029.4,027.8,000.0,037.9,031.0,12.9,0000.0,0001.99,0004.15,0001.59
2023-10-05 09:33:00,SystemResetWarning,0835.5,5.00,000.00,029.4,027.8,000.0,037.9,031.0,13.0,0000.0,0002.03,0004.25,0001.61
2023-10-05 09:34:00,SystemResetWarning,0835.7,5.00,000.00,029.4,027.8,000.0,037.9,031.0,13.0,0000.0,0002.05,0004.30,0001.62
2023-10-05 09:35:00,SystemResetWarning,0835.5,5.00,000.00,029.4,027.8,000.0,037.9,031.0,13.0,0000.0,0002.12,0004.36,0001.66
2023-10-05 09:36:00,SystemResetWarning,0835.5,5.00,000.00,029.4,027.8,000.0,037.9,030.9,13.0,0000.0,0002.15,0004.35,0001.69
2023-10-05 09:37:00,SystemResetWarning,0835.5,5.00,000.00,029.4,027.8,000.0,037.9,030.9,12.9,0000.0,0002.16,0004.33,0001.71
2023-10-05 09:38:00,SystemResetWarning,0835.5,5.01,000.00,029.4,027.7,000.0,037.9,030.9,12.9,0000.0,0002.15,0004.31,0001.70
2023-10-05 09:39:00,SystemResetWarning,0835.5,5.01,000.00,029.4,027.7,000.0,037.9,030.9,12.9,0000.0,0002.14,0004.58,0001.70
2023-10-05 09:40:00,SystemResetWarning,0835.5,5.00,000.00,029.4,027.7,000.0,037.9,030.9,12.9,0000.0,0002.12,0005.51,0001.70
2023-10-05 09:41:00,SystemResetWarning,0835.5,5.00,000.00,029.4,027.7,000.0,037.9,030.9,12.9,0000.0,0002.08,0005.38,0001.70
2023-10-05 09:42:00,SystemResetWarning,0835.5,5.00,000.00,029.3,027.7,000.0,037.8,030.9,12.9,0000.0,0002.10,0005.23,0001.71
2023-10-05 09:43:00,SystemResetWarning,0835.5,5.00,000.00,029.3,027.7,000.0,037.9,030.9,12.9,0000.0,0002.12,0005.12,0001.70
2023-10-05 09:44:00,SystemResetWarning,0835.5,5.00,000.00,029.3,027.7,000.0,037.9,030.9,12.9,0000.0,0002.14,0005.13,0001.72
2023-10-05 09:45:00,SystemResetWarning,0835.5,5.00,000.00,029.3,027.7,000.0,037.8,030.9,12.9,0000.0,0002.25,0005.76,0001.74
2023-10-05 09:46:00,SystemResetWarning,0835.5,4.99,000.00,029.3,027.7,000.0,037.8,030.9,12.9,0000.0,0002.25,0006.03,0001.73
2023-10-05 09:47:00,SystemResetWarning,0835.5,4.99,000.00,029.3,027.7,000.0,037.8,030.9,12.9,0000.0,0002.30,0006.16,0001.73
2023-10-05 09:48:00,SystemResetWarning,0835.5,5.00,000.00,029.3,027.7,000.0,037.8,030.9,12.9,0000.0,0002.31,0006.10,0001.75
2023-10-05 09:49:00,SystemResetWarning,0835.6,5.00,000.00,029.3,027.7,000.0,037.8,030.8,12.9,0000.0,0002.36,0006.22,0001.77
2023-10-05 09:50:00,SystemResetWarning,0835.5,5.00,000.00,029.3,027.7,000.0,037.8,030.8,13.0,0000.0,0002.38,0006.00,0001.78
2023-10-05 09:51:00,SystemResetWarning,0835.7,5.00,000.00,029.3,027.7,000.0,037.8,030.8,12.9,0000.0,0002.41,0006.23,0001.78
2023-10-05 09:52:00,SystemResetWarning,0835.5,5.00,000.00,029.3,027.7,000.0,037.8,030.8,12.9,0000.0,0002.43,0006.38,0001.79
2023-10-05 09:53:00,SystemResetWarning,0835.5,5.00,000.00,029.3,027.6,000.0,037.8,030.8,12.9,0000.0,0002.43,0007.46,0001.78
2023-10-05 09:54:00,SystemResetWarning,0835.5,5.00,000.00,029.3,027.6,000.0,037.8,030.8,12.9,0000.0,0002.46,0007.91,0001.78
2023-10-05 09:55:00,SystemResetWarning,0835.7,5.00,000.00,029.3,027.6,000.0,037.8,030.8,12.9,0000.0,0002.46,0007.92,0001.76
2023-10-05 09:56:00,SystemResetWarning,0835.5,5.00,000.00,029.3,027.6,000.0,037.8,030.8,12.9,0000.0,0002.38,0007.73,0001.74
2023-10-05 09:57:00,SystemResetWarning,0835.5,5.01,000.00,029.2,027.6,000.0,037.8,030.8,13.0,0000.0,0002.37,0007.59,0001.73
2023-10-05 09:58:00,SystemResetWarning,0835.5,5.00,000.00,029.2,027.6,000.0,037.8,030.8,13.1,0000.0,0002.39,0007.73,0001.73
2023-10-05 09:59:00,SystemResetWarning,0835.5,4.99,000.00,029.2,027.6,000.0,037.7,030.8,13.1,0000.0,0002.38,0007.80,0001.71
